Simultaneous Nadir Overpasses (SNOs) Predictions

Prediction of SNOs between AQUA and NPP Satellite Orbit:

Table of predicted SNOs for the next 14.0 days since TLE Epoch: 5/10/2013
Index Date (AQUA) Time (AQUA) Lat,Lon (AQUA) SZA (AQUA ) Date (NPP) Time (NPP) Lat,Lon (NPP) SZA (NPP ) Distance(km) Time Diff (sec)
1 05/10/2013 22:38:55 75.85, 78.91 79.72 05/10/2013 22:38:11 75.84, 78.82 79.78 2.66 44
2 05/10/2013 23:27:59 -76.97,-109.71 101.62 05/10/2013 23:28:31 -76.98,-109.65 101.66 1.56 32
3 05/13/2013 14:55:03 76.51,-163.07 78.29 05/13/2013 14:54:52 76.52,-163.00 78.28 1.82 11
4 05/13/2013 15:44:16 -77.19, 7.03 102.55 05/13/2013 15:45:22 -77.20, 7.04 102.60 0.37 66
5 05/16/2013 06:22:15 -75.73, 142.74 101.42 05/16/2013 06:21:21 -75.72, 142.69 101.36 1.79 54
6 05/16/2013 07:11:16 76.90, -45.79 77.20 05/16/2013 07:11:39 76.91, -45.69 77.16 2.49 23
7 05/18/2013 22:38:23 -76.31, -99.57 102.66 05/18/2013 22:38:03 -76.31, -99.53 102.66 0.86 20
8 05/18/2013 23:27:33 77.03, 70.60 76.47 05/18/2013 23:28:31 77.03, 70.57 76.43 0.79 58
9 05/21/2013 14:05:28 75.71,-153.15 77.52 05/21/2013 14:04:26 75.71,-153.12 77.56 0.96 62
10 05/21/2013 14:54:37 -76.61, 17.37 103.56 05/21/2013 14:54:52 -76.61, 17.36 103.57 0.31 15
11 05/24/2013 06:21:38 76.19, -35.75 76.46 05/24/2013 06:21:11 76.20, -35.70 76.47 1.47 27




NCC Satellite Simultaneous Nad
